Dubrovnik, Croatia

9:20 PM CEST on May 21, 2018 (GMT +0200)
Cilipi

Weather History for LDDU - November, 2012

Change the Weather History Date:

Sunday, November 25, 2012

  Actual Average (LYTV) Record (LYTV)
Temperature  
Mean Temperature 52 °F -  
Max Temperature 61 °F 58 °F 65 °F (2012)
Min Temperature 44 °F 41 °F 28 °F (2004)
Degree Days  
Heating Degree Days 12    
Growing Degree Days 2 (Base 50)    
Moisture  
Dew Point 45 °F    
Average Humidity 74    
Maximum Humidity 87    
Minimum Humidity 49    
Precipitation  
Precipitation 0.00 in - - ()
Sea Level Pressure  
Sea Level Pressure 30.19 in    
Wind  
Wind Speed 5 mph ()    
Max Wind Speed 11 mph    
Max Gust Speed -    
Visibility 9.0 miles    
Events      
Averages and records for this station are not official NWS values.
T = Trace of Precipitation, MM = Missing Value Source: Averaged Metar Reports

Daily Weather History Graph

Daily Weather History Graph

Search for Another Location

Airport or City:

Astronomy

Nov. 25, 2012 Rise Set
Actual Time 6:50 AM CET 4:17 PM CET
Civil Twilight 6:19 AM CET 4:48 PM CET
Nautical Twilight 5:44 AM CET 5:22 PM CET
Astronomical Twilight 5:11 AM CET 5:56 PM CET
Moon 2:26 PM CET (11/25) 3:44 AM CET (11/25)
Length of Visible Light 10h 28m
Length of Day
9h 26m
Waxing Gibbous, 91% of the Moon is Illuminated
Nov 25
Waxing Gibbous
Nov 28
Full
Dec 6
Last Quarter
Dec 13
New
Dec 20
First Quarter

Hourly Weather History & Observations

Time (CET) Temp. Windchill Dew Point Humidity Pressure Visibility Wind Dir Wind Speed Gust Speed Precip Events Conditions
12:00 AM 48.2 °F - 44.6 °F 87% 30.21 in - East 5.8 mph - N/A   Clear
12:30 AM 48.2 °F - 44.6 °F 87% 30.21 in - Variable 2.3 mph - N/A   Clear
1:00 AM 47 °F - 43 °F 79% 30.22 in 9 mi East 4.5 mph - -  
1:00 AM 46.4 °F 43.5 °F 42.8 °F 87% 30.21 in - ESE 5.8 mph - N/A   Clear
1:30 AM 48.2 °F - 42.8 °F 82% 30.21 in - ENE 4.6 mph - N/A   Clear
2:00 AM 48.2 °F - 42.8 °F 82% 30.21 in - East 3.5 mph - N/A   Clear
2:30 AM 46.4 °F 44.3 °F 42.8 °F 87% 30.18 in - East 4.6 mph - N/A   Clear
3:00 AM 46.4 °F 44.3 °F 42.8 °F 87% 30.21 in - East 4.6 mph - N/A   Clear
3:30 AM 48.2 °F - 42.8 °F 82% 30.18 in - ENE 3.5 mph - N/A   Clear
4:00 AM 47 °F - 43 °F 79% 30.21 in 7 mi East 6.7 mph - -  
4:00 AM 46.4 °F 42.9 °F 42.8 °F 87% 30.18 in - East 6.9 mph - N/A   Clear
4:30 AM 46.4 °F 44.3 °F 42.8 °F 87% 30.18 in - East 4.6 mph - N/A   Clear
5:00 AM 44.6 °F 40.7 °F 41.0 °F 87% 30.18 in - East 6.9 mph - N/A   Clear
5:30 AM 46.4 °F 42.9 °F 42.8 °F 87% 30.18 in - East 6.9 mph - N/A   Clear
6:00 AM 46.4 °F 43.5 °F 41.0 °F 81% 30.18 in - ENE 5.8 mph - N/A   Clear
6:30 AM 46.4 °F 42.9 °F 42.8 °F 87% 30.18 in - ENE 6.9 mph - N/A   Clear
7:00 AM 46 °F - 41 °F 78% 30.22 in 12 mi East 6.7 mph - -   Scattered Clouds
7:00 AM 46.4 °F 43.5 °F 42.8 °F 87% 30.18 in - East 5.8 mph - N/A   Clear
7:30 AM 48.2 °F - 42.8 °F 82% 30.21 in - ENE 6.9 mph - N/A   Clear
8:00 AM 50.0 °F - 46.4 °F 87% 30.21 in - East 6.9 mph - N/A   Clear
8:30 AM 53.6 °F - 46.4 °F 77% 30.21 in - East 5.8 mph - N/A   Clear
9:00 AM 55.4 °F - 48.2 °F 77% 30.21 in - East 5.8 mph - N/A   Clear
9:30 AM 57.2 °F - 48.2 °F 72% 30.21 in - ESE 4.6 mph - N/A   Clear
10:00 AM 58 °F - 48 °F 61% 30.23 in 16 mi ESE 4.5 mph - -   Scattered Clouds
10:00 AM 59.0 °F - 48.2 °F 67% 30.21 in 6.2 mi ESE 4.6 mph - N/A   Partly Cloudy
10:30 AM 60.8 °F - 50.0 °F 68% 30.21 in 6.2 mi ESE 3.5 mph - N/A   Partly Cloudy
11:00 AM 60.8 °F - 50.0 °F 68% 30.21 in 6.2 mi ESE 3.5 mph - N/A   Partly Cloudy
11:30 AM 62.6 °F - 50.0 °F 63% 30.21 in 6.2 mi Variable 2.3 mph - N/A   Partly Cloudy
12:00 PM 60.8 °F - 50.0 °F 68% 30.18 in 6.2 mi West 5.8 mph - N/A   Partly Cloudy
12:30 PM 60.8 °F - 48.2 °F 63% 30.18 in 6.2 mi West 4.6 mph - N/A   Partly Cloudy
1:00 PM 61 °F - 49 °F 56% 30.18 in 16 mi WNW 6.7 mph - -   Scattered Clouds
1:00 PM 60.8 °F - 48.2 °F 63% 30.18 in 6.2 mi WNW 5.8 mph - N/A   Partly Cloudy
1:30 PM 60.8 °F - 48.2 °F 63% 30.18 in 6.2 mi West 8.1 mph - N/A   Partly Cloudy
2:00 PM 60.8 °F - 48.2 °F 63% 30.15 in 6.2 mi WNW 9.2 mph - N/A   Partly Cloudy
2:30 PM 59.0 °F - 46.4 °F 63% 30.15 in 6.2 mi West 8.1 mph - N/A   Partly Cloudy
3:00 PM 60.8 °F - 46.4 °F 59% 30.15 in - West 6.9 mph - N/A   Clear
3:30 PM 59.0 °F - 48.2 °F 67% 30.15 in - WNW 9.2 mph - N/A   Clear
4:00 PM 57 °F - 48 °F 65% 30.17 in 16 mi WNW 8.9 mph - -   Scattered Clouds
4:00 PM 57.2 °F - 48.2 °F 72% 30.15 in - WNW 8.1 mph - N/A   Clear
4:30 PM 55.4 °F - 48.2 °F 77% 30.15 in - WNW 8.1 mph - N/A   Clear
5:00 PM 55.4 °F - 48.2 °F 77% 30.18 in - NW 5.8 mph - N/A   Clear
5:30 PM 55.4 °F - 48.2 °F 77% 30.18 in 6.2 mi NW 3.5 mph - N/A   Partly Cloudy
6:00 PM 53.6 °F - 46.4 °F 77% 30.18 in - Variable 3.5 mph - N/A   Clear
6:30 PM 53.6 °F - 46.4 °F 77% 30.18 in - Variable 2.3 mph - N/A   Clear
7:00 PM 52 °F - 46 °F 72% 30.19 in 16 mi Calm Calm - -  
7:00 PM 51.8 °F - 46.4 °F 82% 30.18 in - Calm Calm - N/A   Clear
7:30 PM 53.6 °F - 46.4 °F 77% 30.18 in - NE 4.6 mph - N/A   Clear
8:00 PM 57.2 °F - 46.4 °F 67% 30.18 in - North 5.8 mph - N/A   Clear
8:30 PM 55.4 °F - 44.6 °F 67% 30.18 in - NNE 6.9 mph - N/A   Clear
9:00 PM 55.4 °F - 44.6 °F 67% 30.18 in - North 4.6 mph - N/A   Clear
9:30 PM 57.2 °F - 44.6 °F 63% 30.18 in - Variable 3.5 mph - N/A   Clear
10:00 PM 57 °F - 43 °F 49% 30.19 in 16 mi NNE 11.2 mph - -  
10:00 PM 57.2 °F - 42.8 °F 59% 30.18 in - NNE 10.4 mph - N/A   Clear
10:30 PM 55.4 °F - 42.8 °F 63% 30.18 in - North 8.1 mph - N/A   Clear
11:00 PM 53.6 °F - 42.8 °F 67% 30.18 in 6.2 mi Variable 2.3 mph - N/A   Scattered Clouds
11:30 PM 53.6 °F - 42.8 °F 67% 30.18 in 6.2 mi ENE 5.8 mph - N/A   Mostly Cloudy